EWG5BM EIDW-EDDL

Flight info

Callsign EWG5BM
Flight time 1h 17m
Altitude 37000
Route ENDEQ3J ENDEQ Q36 ALAVA Z195 MALUD UL975 WAL M16 DOLAS L603 LAMSO DCT PAM P62 PISAP PISAP1A
Aircraft A319/M-SDE3FGHIRWY/LB1

Departure

Time 2026-05-06 16:18
Airport Dublin Airport (EIDW)

Arrival

Time 2026-05-06 17:36
Airport Düsseldorf Airport (EDDL)
Time Latitude Longitude Altitude Speed Heading
2026-05-06 15:22 53.42751 -6.24816 211 ft 0 kts 357°
2026-05-06 16:04 53.42746 -6.24815 211 ft 4 kts 357°
2026-05-06 16:04 53.42721 -6.24814 212 ft 2 kts 357°
2026-05-06 16:04 53.42704 -6.24808 212 ft 4 kts 281°
2026-05-06 16:05 53.42708 -6.24769 213 ft 4 kts 246°
2026-05-06 16:05 53.42717 -6.24737 215 ft 0 kts 245°
2026-05-06 16:08 53.42711 -6.24755 216 ft 7 kts 240°
2026-05-06 16:08 53.42667 -6.24860 216 ft 12 kts 236°
2026-05-06 16:08 53.42707 -6.24967 211 ft 14 kts 327°
2026-05-06 16:08 53.42778 -6.25070 211 ft 10 kts 281°
2026-05-06 16:09 53.42727 -6.25172 211 ft 14 kts 224°
2026-05-06 16:09 53.42647 -6.25313 211 ft 19 kts 226°
2026-05-06 16:09 53.42642 -6.25487 214 ft 12 kts 267°
2026-05-06 16:09 53.42581 -6.25616 211 ft 17 kts 222°
2026-05-06 16:10 53.42486 -6.25774 211 ft 16 kts 227°
2026-05-06 16:10 53.42428 -6.25875 211 ft 13 kts 226°
2026-05-06 16:10 53.42407 -6.25911 217 ft 0 kts 224°
2026-05-06 16:11 53.42402 -6.25919 211 ft 0 kts 224°
2026-05-06 16:13 53.42375 -6.25965 211 ft 11 kts 225°
2026-05-06 16:13 53.42301 -6.26096 211 ft 18 kts 232°
2026-05-06 16:14 53.42266 -6.26329 211 ft 24 kts 275°
2026-05-06 16:14 53.42284 -6.26607 211 ft 25 kts 275°
2026-05-06 16:14 53.42302 -6.26927 211 ft 30 kts 275°
2026-05-06 16:14 53.42320 -6.27274 211 ft 31 kts 275°
2026-05-06 16:15 53.42342 -6.27656 211 ft 28 kts 275°
2026-05-06 16:15 53.42353 -6.27870 215 ft 19 kts 275°
2026-05-06 16:15 53.42365 -6.28114 216 ft 23 kts 275°
2026-05-06 16:15 53.42374 -6.28274 217 ft 9 kts 266°
2026-05-06 16:16 53.42339 -6.28324 211 ft 8 kts 193°
2026-05-06 16:16 53.42311 -6.28325 211 ft 3 kts 173°
2026-05-06 16:16 53.42310 -6.28324 211 ft 0 kts 171°
2026-05-06 16:17 53.42290 -6.28308 211 ft 6 kts 148°
2026-05-06 16:17 53.42244 -6.28233 213 ft 12 kts 128°
2026-05-06 16:17 53.42200 -6.28066 215 ft 20 kts 107°
2026-05-06 16:17 53.42167 -6.27631 209 ft 66 kts 95°
2026-05-06 16:18 53.42105 -6.26513 217 ft 125 kts 95°
2026-05-06 16:18 53.42016 -6.24895 606 ft 136 kts 97°
2026-05-06 16:18 53.41943 -6.23334 1252 ft 134 kts 97°
2026-05-06 16:18 53.41855 -6.21764 1695 ft 145 kts 98°
2026-05-06 16:19 53.41750 -6.19928 2025 ft 167 kts 97°
2026-05-06 16:19 53.41633 -6.17883 2404 ft 190 kts 97°
2026-05-06 16:19 53.41498 -6.15550 2783 ft 212 kts 97°
2026-05-06 16:19 53.41351 -6.12975 3309 ft 232 kts 97°
2026-05-06 16:20 53.41196 -6.10226 4126 ft 241 kts 96°
2026-05-06 16:20 53.41032 -6.07313 4786 ft 262 kts 96°
2026-05-06 16:20 53.40907 -6.04206 5681 ft 271 kts 88°
2026-05-06 16:20 53.41097 -6.01022 6657 ft 277 kts 84°
2026-05-06 16:21 53.41326 -5.97789 7598 ft 282 kts 83°
2026-05-06 16:21 53.41561 -5.94502 8501 ft 288 kts 83°
2026-05-06 16:21 53.41799 -5.91128 9251 ft 293 kts 83°
2026-05-06 16:21 53.42039 -5.87708 10139 ft 298 kts 83°
2026-05-06 16:22 53.42288 -5.84117 10504 ft 322 kts 83°
2026-05-06 16:22 53.42554 -5.80255 10836 ft 343 kts 83°
2026-05-06 16:22 53.42827 -5.76233 11480 ft 351 kts 83°
2026-05-06 16:22 53.43104 -5.72129 12226 ft 357 kts 83°
2026-05-06 16:23 53.43381 -5.67968 12977 ft 362 kts 83°
2026-05-06 16:23 53.43661 -5.63746 13721 ft 366 kts 83°
2026-05-06 16:23 53.43941 -5.59474 14385 ft 371 kts 83°
2026-05-06 16:23 53.44222 -5.55156 15075 ft 374 kts 83°
2026-05-06 16:24 53.44494 -5.50798 15755 ft 378 kts 86°
2026-05-06 16:24 53.44488 -5.46344 16274 ft 386 kts 92°
2026-05-06 16:24 53.44380 -5.41803 16866 ft 392 kts 92°
2026-05-06 16:24 53.44265 -5.37216 17527 ft 396 kts 92°
2026-05-06 16:25 53.44144 -5.32587 18198 ft 399 kts 92°
2026-05-06 16:25 53.44022 -5.27916 18794 ft 403 kts 92°
2026-05-06 16:25 53.43899 -5.23204 19384 ft 406 kts 92°
2026-05-06 16:25 53.43777 -5.18454 19974 ft 409 kts 92°
2026-05-06 16:26 53.43652 -5.13665 20577 ft 413 kts 92°
2026-05-06 16:26 53.43510 -5.08838 21136 ft 416 kts 92°
2026-05-06 16:26 53.43357 -5.03970 21680 ft 420 kts 92°
2026-05-06 16:26 53.43199 -4.99064 22210 ft 423 kts 92°
2026-05-06 16:27 53.43035 -4.94130 22728 ft 426 kts 92°
2026-05-06 16:27 53.42865 -4.89159 22977 ft 428 kts 92°
2026-05-06 16:27 53.42695 -4.84176 23018 ft 428 kts 92°
2026-05-06 16:27 53.42528 -4.79204 23015 ft 428 kts 92°
2026-05-06 16:28 53.42363 -4.74225 23016 ft 428 kts 92°
2026-05-06 16:28 53.42199 -4.69260 23019 ft 428 kts 92°
2026-05-06 16:28 53.42032 -4.64275 23026 ft 428 kts 92°
2026-05-06 16:28 53.41858 -4.59299 23026 ft 428 kts 92°
2026-05-06 16:29 53.41681 -4.54306 23026 ft 429 kts 92°
2026-05-06 16:29 53.41500 -4.49316 23027 ft 429 kts 92°
2026-05-06 16:29 53.41317 -4.44325 23027 ft 429 kts 92°
2026-05-06 16:29 53.41135 -4.39332 23026 ft 429 kts 93°
2026-05-06 16:30 53.40950 -4.34342 23027 ft 429 kts 93°
2026-05-06 16:30 53.40829 -4.31035 23025 ft 429 kts 92°
2026-05-06 16:30 53.40585 -4.24359 23023 ft 429 kts 93°
2026-05-06 16:30 53.40398 -4.19343 23334 ft 432 kts 93°
2026-05-06 16:31 53.40205 -4.14301 23785 ft 435 kts 93°
2026-05-06 16:31 53.40007 -4.09234 24187 ft 437 kts 93°
2026-05-06 16:31 53.39802 -4.04128 24564 ft 441 kts 93°
2026-05-06 16:31 53.39603 -3.98991 24977 ft 443 kts 91°
2026-05-06 16:32 53.39680 -3.93825 25400 ft 445 kts 84°
2026-05-06 16:32 53.39952 -3.88652 25833 ft 447 kts 84°
2026-05-06 16:32 53.40224 -3.83458 26266 ft 449 kts 84°
2026-05-06 16:32 53.40492 -3.78236 26690 ft 451 kts 84°
2026-05-06 16:33 53.40752 -3.72979 27107 ft 453 kts 84°
2026-05-06 16:33 53.41004 -3.67769 27510 ft 456 kts 84°
2026-05-06 16:33 53.41252 -3.62396 27913 ft 458 kts 86°
2026-05-06 16:34 53.40942 -3.51723 28654 ft 464 kts 94°
2026-05-06 16:34 53.40696 -3.46242 29026 ft 467 kts 94°
2026-05-06 16:34 53.40457 -3.40887 29383 ft 469 kts 93°
2026-05-06 16:34 53.40213 -3.35430 29739 ft 471 kts 94°
2026-05-06 16:35 53.39964 -3.29948 30084 ft 473 kts 94°
2026-05-06 16:35 53.39712 -3.24448 30440 ft 474 kts 94°
2026-05-06 16:35 53.39458 -3.18949 30861 ft 472 kts 94°
2026-05-06 16:35 53.39204 -3.13460 31276 ft 472 kts 94°
2026-05-06 16:36 53.38965 -3.07996 31697 ft 471 kts 93°
2026-05-06 16:36 53.38754 -3.02523 32073 ft 471 kts 93°
2026-05-06 16:36 53.38556 -2.97034 32455 ft 472 kts 93°
2026-05-06 16:36 53.38363 -2.91556 32864 ft 471 kts 93°
2026-05-06 16:37 53.38167 -2.86082 33284 ft 471 kts 93°
2026-05-06 16:37 53.37964 -2.80610 33701 ft 470 kts 93°
2026-05-06 16:37 53.37751 -2.75151 34111 ft 470 kts 93°
2026-05-06 16:37 53.37533 -2.69702 34455 ft 469 kts 93°
2026-05-06 16:38 53.37309 -2.64248 34793 ft 469 kts 93°
2026-05-06 16:38 53.37083 -2.58789 35127 ft 470 kts 93°
2026-05-06 16:38 53.36857 -2.53335 35439 ft 470 kts 94°
2026-05-06 16:38 53.36625 -2.47865 35716 ft 472 kts 94°
2026-05-06 16:39 53.36392 -2.42385 36010 ft 472 kts 94°
2026-05-06 16:39 53.36160 -2.36904 36309 ft 472 kts 94°
2026-05-06 16:39 53.35927 -2.31421 36605 ft 472 kts 94°
2026-05-06 16:39 53.35659 -2.25938 36892 ft 472 kts 98°
2026-05-06 16:40 53.35130 -2.20508 37168 ft 473 kts 100°
2026-05-06 16:40 53.34574 -2.15092 37439 ft 473 kts 100°
2026-05-06 16:40 53.34014 -2.09670 37720 ft 473 kts 100°
2026-05-06 16:40 53.33452 -2.04241 37977 ft 474 kts 100°
2026-05-06 16:41 53.32892 -1.98818 38033 ft 472 kts 100°
2026-05-06 16:41 53.31775 -1.88039 38035 ft 470 kts 100°
2026-05-06 16:42 53.30652 -1.77345 38041 ft 470 kts 100°
2026-05-06 16:42 53.29506 -1.66596 38040 ft 470 kts 101°
2026-05-06 16:43 53.28353 -1.55855 38048 ft 470 kts 101°
2026-05-06 16:43 53.27194 -1.45112 38044 ft 470 kts 101°
2026-05-06 16:44 53.26026 -1.34369 38042 ft 470 kts 101°
2026-05-06 16:44 53.24844 -1.23631 38042 ft 470 kts 101°
2026-05-06 16:45 53.23650 -1.12902 38038 ft 470 kts 101°
2026-05-06 16:45 53.22443 -1.02178 38047 ft 470 kts 101°
2026-05-06 16:46 53.21234 -0.91446 38047 ft 471 kts 101°
2026-05-06 16:46 53.20020 -0.80712 38045 ft 471 kts 101°
2026-05-06 16:47 53.18784 -0.69987 38046 ft 471 kts 101°
2026-05-06 16:47 53.17540 -0.59259 38048 ft 471 kts 102°
2026-05-06 16:48 53.16291 -0.48534 38050 ft 472 kts 102°
2026-05-06 16:48 53.15026 -0.37805 38052 ft 472 kts 102°
2026-05-06 16:49 53.13758 -0.27092 38054 ft 472 kts 102°
2026-05-06 16:49 53.12475 -0.16384 38055 ft 472 kts 102°
2026-05-06 16:50 53.11186 -0.05746 38056 ft 472 kts 102°
2026-05-06 16:50 53.09889 0.04921 37959 ft 464 kts 102°
2026-05-06 16:51 53.08610 0.15398 38063 ft 462 kts 102°
2026-05-06 16:51 53.07321 0.25841 38057 ft 460 kts 103°
2026-05-06 16:52 53.06023 0.36240 38047 ft 459 kts 103°
2026-05-06 16:52 53.04724 0.46609 38037 ft 458 kts 103°
2026-05-06 16:53 53.03413 0.56962 38031 ft 458 kts 103°
2026-05-06 16:53 53.02095 0.67302 38021 ft 457 kts 103°
2026-05-06 16:54 53.00988 0.75954 38015 ft 457 kts 103°
2026-05-06 16:54 52.99673 0.86209 38008 ft 457 kts 103°
2026-05-06 16:55 52.98329 0.96514 38005 ft 457 kts 103°
2026-05-06 16:55 52.97014 1.06833 37997 ft 457 kts 102°
2026-05-06 16:56 52.95844 1.17203 37995 ft 458 kts 101°
2026-05-06 16:56 52.94690 1.27584 37996 ft 458 kts 102°
2026-05-06 16:57 52.93493 1.37944 37993 ft 458 kts 102°
2026-05-06 16:57 52.92260 1.48296 37997 ft 458 kts 102°
2026-05-06 16:58 52.91017 1.58640 37992 ft 458 kts 103°
2026-05-06 16:58 52.89773 1.68978 37991 ft 458 kts 103°
2026-05-06 16:59 52.88524 1.79325 37988 ft 458 kts 103°
2026-05-06 16:59 52.87267 1.89661 37985 ft 458 kts 103°
2026-05-06 17:00 52.86002 1.99989 37983 ft 458 kts 103°
2026-05-06 17:00 52.84730 2.10321 37980 ft 459 kts 103°
2026-05-06 17:01 52.83444 2.20653 37986 ft 459 kts 103°
2026-05-06 17:01 52.82143 2.30990 37985 ft 459 kts 103°
2026-05-06 17:02 52.80832 2.41315 37990 ft 459 kts 103°
2026-05-06 17:02 52.79513 2.51652 37984 ft 460 kts 103°
2026-05-06 17:03 52.78189 2.61986 37978 ft 460 kts 103°
2026-05-06 17:03 52.76848 2.72317 37980 ft 460 kts 104°
2026-05-06 17:04 52.75492 2.82667 37983 ft 461 kts 104°
2026-05-06 17:04 52.74134 2.92992 37983 ft 461 kts 104°
2026-05-06 17:05 52.72698 3.03289 37972 ft 460 kts 107°
2026-05-06 17:05 52.70911 3.13420 37965 ft 460 kts 109°
2026-05-06 17:06 52.68991 3.23396 37965 ft 459 kts 109°
2026-05-06 17:06 52.67099 3.33456 37964 ft 460 kts 109°
2026-05-06 17:07 52.65266 3.43536 37967 ft 460 kts 108°
2026-05-06 17:07 52.63424 3.53688 37957 ft 459 kts 109°
2026-05-06 17:08 52.61566 3.63754 37954 ft 459 kts 109°
2026-05-06 17:08 52.59691 3.73802 37949 ft 459 kts 109°
2026-05-06 17:09 52.57814 3.83846 37955 ft 459 kts 109°
2026-05-06 17:09 52.55924 3.93879 37952 ft 459 kts 109°
2026-05-06 17:10 52.54026 4.03895 37938 ft 459 kts 109°
2026-05-06 17:10 52.52129 4.13850 37939 ft 459 kts 109°
2026-05-06 17:11 52.50216 4.23848 37937 ft 459 kts 109°
2026-05-06 17:11 52.48299 4.33863 37932 ft 459 kts 109°
2026-05-06 17:12 52.46384 4.43791 37932 ft 459 kts 110°
2026-05-06 17:12 52.44468 4.53640 37929 ft 459 kts 110°
2026-05-06 17:13 52.42521 4.63614 37917 ft 459 kts 110°
2026-05-06 17:13 52.40573 4.73519 37913 ft 459 kts 110°
2026-05-06 17:14 52.38620 4.83412 37917 ft 459 kts 110°
2026-05-06 17:14 52.36645 4.93350 37916 ft 459 kts 110°
2026-05-06 17:15 52.34661 5.03298 37725 ft 461 kts 110°
2026-05-06 17:15 52.33656 5.08270 37447 ft 460 kts 112°
2026-05-06 17:15 52.32400 5.12994 37181 ft 458 kts 117°
2026-05-06 17:15 52.31063 5.17659 36917 ft 459 kts 117°
2026-05-06 17:16 52.29712 5.22378 36656 ft 459 kts 117°
2026-05-06 17:16 52.28357 5.27099 36395 ft 459 kts 117°
2026-05-06 17:16 52.27003 5.31803 36137 ft 459 kts 117°
2026-05-06 17:16 52.25644 5.36514 35887 ft 459 kts 118°
2026-05-06 17:17 52.24284 5.41224 35639 ft 459 kts 118°
2026-05-06 17:17 52.22923 5.45930 35387 ft 459 kts 118°
2026-05-06 17:17 52.21576 5.50571 35134 ft 459 kts 118°
2026-05-06 17:17 52.20206 5.55271 34874 ft 459 kts 118°
2026-05-06 17:18 52.18813 5.60026 34634 ft 460 kts 118°
2026-05-06 17:18 52.17453 5.64664 34400 ft 460 kts 118°
2026-05-06 17:18 52.16076 5.69367 34163 ft 460 kts 119°
2026-05-06 17:18 52.14699 5.74059 33923 ft 460 kts 119°
2026-05-06 17:19 52.13322 5.78758 33638 ft 459 kts 119°
2026-05-06 17:19 52.11934 5.83507 33356 ft 459 kts 119°
2026-05-06 17:19 52.10559 5.88201 33075 ft 459 kts 119°
2026-05-06 17:19 52.09199 5.92818 32804 ft 460 kts 120°
2026-05-06 17:20 52.07808 5.97507 32549 ft 461 kts 120°
2026-05-06 17:20 52.06412 6.02206 32270 ft 461 kts 119°
2026-05-06 17:20 52.04918 6.06811 31991 ft 458 kts 126°
2026-05-06 17:20 52.03005 6.10876 30762 ft 453 kts 137°
2026-05-06 17:21 52.00578 6.14144 28943 ft 456 kts 150°
2026-05-06 17:21 51.97737 6.16448 27166 ft 457 kts 162°
2026-05-06 17:21 51.94690 6.17775 25683 ft 451 kts 173°
2026-05-06 17:21 51.91597 6.18405 24328 ft 446 kts 175°
2026-05-06 17:22 51.88530 6.18998 22994 ft 442 kts 175°
2026-05-06 17:22 51.85497 6.19584 21639 ft 435 kts 175°
2026-05-06 17:22 51.82516 6.20146 20400 ft 427 kts 175°
2026-05-06 17:22 51.79592 6.20684 19233 ft 418 kts 175°
2026-05-06 17:23 51.76727 6.21203 18063 ft 411 kts 174°
2026-05-06 17:23 51.73905 6.21713 16779 ft 405 kts 174°
2026-05-06 17:23 51.71122 6.22219 15544 ft 401 kts 174°
2026-05-06 17:23 51.68362 6.22722 14635 ft 394 kts 174°
2026-05-06 17:24 51.65669 6.23214 14092 ft 386 kts 173°
2026-05-06 17:24 51.63016 6.23701 13451 ft 381 kts 173°
2026-05-06 17:24 51.60400 6.24178 12920 ft 374 kts 173°
2026-05-06 17:24 51.57838 6.24645 12316 ft 368 kts 173°
2026-05-06 17:25 51.55311 6.25103 11714 ft 364 kts 173°
2026-05-06 17:25 51.52811 6.25557 11115 ft 359 kts 173°
2026-05-06 17:25 51.50349 6.26005 10731 ft 349 kts 173°
2026-05-06 17:25 51.47996 6.26431 10610 ft 332 kts 173°
2026-05-06 17:26 51.45746 6.26839 10481 ft 318 kts 173°
2026-05-06 17:26 51.43590 6.27232 10362 ft 306 kts 173°
2026-05-06 17:26 51.41500 6.27613 10207 ft 299 kts 173°
2026-05-06 17:26 51.39438 6.27986 10133 ft 298 kts 172°
2026-05-06 17:27 51.37383 6.28355 10019 ft 297 kts 172°
2026-05-06 17:27 51.35316 6.28728 9585 ft 303 kts 173°
2026-05-06 17:27 51.33240 6.29105 9311 ft 297 kts 172°
2026-05-06 17:27 51.31184 6.29474 8909 ft 297 kts 173°
2026-05-06 17:28 51.29142 6.29840 8549 ft 295 kts 173°
2026-05-06 17:28 51.27139 6.30198 8207 ft 292 kts 173°
2026-05-06 17:28 51.25124 6.30559 7856 ft 289 kts 173°
2026-05-06 17:28 51.23134 6.30917 7437 ft 286 kts 173°
2026-05-06 17:29 51.21194 6.31267 7283 ft 274 kts 172°
2026-05-06 17:29 51.19410 6.32110 7158 ft 259 kts 148°
2026-05-06 17:29 51.18155 6.34006 6817 ft 252 kts 119°
2026-05-06 17:29 51.17624 6.36624 6401 ft 249 kts 92°
2026-05-06 17:30 51.17603 6.39379 5969 ft 249 kts 88°
2026-05-06 17:30 51.17597 6.42097 5533 ft 249 kts 88°
2026-05-06 17:30 51.17587 6.44856 5107 ft 248 kts 88°
2026-05-06 17:30 51.17574 6.47581 4697 ft 243 kts 89°
2026-05-06 17:31 51.17560 6.50245 4287 ft 238 kts 88°
2026-05-06 17:31 51.17664 6.52849 3729 ft 235 kts 73°
2026-05-06 17:31 51.18341 6.55124 3358 ft 222 kts 52°
2026-05-06 17:31 51.19250 6.57013 3053 ft 207 kts 51°
2026-05-06 17:32 51.20082 6.58744 2794 ft 189 kts 51°
2026-05-06 17:32 51.20839 6.60322 2567 ft 171 kts 50°
2026-05-06 17:32 51.21540 6.61783 2322 ft 160 kts 51°
2026-05-06 17:32 51.22186 6.63130 2112 ft 145 kts 51°
2026-05-06 17:33 51.22765 6.64337 1918 ft 130 kts 50°
2026-05-06 17:33 51.23298 6.65450 1748 ft 124 kts 49°
2026-05-06 17:33 51.23816 6.66530 1579 ft 122 kts 50°
2026-05-06 17:33 51.24328 6.67600 1411 ft 121 kts 49°
2026-05-06 17:34 51.24846 6.68682 1260 ft 124 kts 50°
2026-05-06 17:34 51.25370 6.69777 1084 ft 123 kts 50°
2026-05-06 17:34 51.25892 6.70869 915 ft 123 kts 49°
2026-05-06 17:34 51.26413 6.71958 736 ft 124 kts 50°
2026-05-06 17:35 51.26940 6.73061 569 ft 125 kts 50°
2026-05-06 17:35 51.27470 6.74171 395 ft 126 kts 51°
2026-05-06 17:35 51.28001 6.75286 219 ft 126 kts 50°
2026-05-06 17:36 51.28818 6.77002 127 ft 52 kts 53°
2026-05-06 17:36 51.29010 6.77404 127 ft 15 kts 54°
2026-05-06 17:36 51.29002 6.77573 126 ft 19 kts 132°
2026-05-06 17:36 51.28937 6.77651 129 ft 0 kts 143°
2026-05-06 17:37 51.28932 6.77657 128 ft 0 kts 143°
2026-05-06 17:37 51.28929 6.77661 128 ft 2 kts 143°
2026-05-06 17:37 51.28910 6.77665 126 ft 3 kts 202°
2026-05-06 17:38 51.28888 6.77616 129 ft 7 kts 237°
2026-05-06 17:38 51.28853 6.77534 129 ft 10 kts 232°
2026-05-06 17:38 51.28800 6.77431 128 ft 14 kts 232°
2026-05-06 17:38 51.28736 6.77298 126 ft 17 kts 233°
2026-05-06 17:39 51.28660 6.77136 127 ft 20 kts 233°
2026-05-06 17:39 51.28570 6.76948 129 ft 23 kts 232°
2026-05-06 17:39 51.28465 6.76725 124 ft 27 kts 233°
2026-05-06 17:39 51.28355 6.76496 124 ft 25 kts 232°
2026-05-06 17:40 51.28250 6.76276 125 ft 26 kts 232°
2026-05-06 17:40 51.28176 6.76124 128 ft 23 kts 232°
2026-05-06 17:40 51.28125 6.76027 130 ft 8 kts 214°
2026-05-06 17:40 51.28070 6.76053 128 ft 11 kts 162°
2026-05-06 17:41 51.27989 6.76046 127 ft 12 kts 181°
2026-05-06 17:41 51.27919 6.76048 128 ft 7 kts 181°
2026-05-06 17:41 51.27867 6.76049 125 ft 8 kts 171°
2026-05-06 17:41 51.27841 6.76128 127 ft 10 kts 90°
2026-05-06 17:42 51.27839 6.76205 128 ft 1 kts 109°
2026-05-06 17:42 51.27829 6.76213 129 ft 2 kts 159°
2026-05-06 17:42 51.27813 6.76222 129 ft 3 kts 161°
2026-05-06 17:42 51.27788 6.76235 127 ft 5 kts 163°
2026-05-06 17:43 51.27758 6.76250 126 ft 0 kts 163°